STARLINK-11468, 62221

Orbit data source: Space-Track

STARLINK-11468, 62221 is a payload satellite owned by SpaceX/Seattle (US) in LEO that was launched on Thu, 05 Dec 2024 UTC via an FALCON 9 launch vehicle from the Air Force Western Test Range (AFWTR). Payload-class satellites include a variety of spacecraft equipped with specific instruments for various scientific and technological missions. These include communications satellites like Starlink; space stations such as the ISS; scientific satellites like the Hubble; Earth observation satellites from companies like Planet Labs, Umbra, and HawkEye 360; GPS; miniature CubeSats for education and research; and military/defense satellites.

Not visible in the next 10 days
Identifier
62221, 2024-231D
Orbit
LEO
Last TLE update
5 hours ago
Origin
Manufacturer
SpaceX/Seattle
Mission
Operational Commercial Communications
Bus & Motor
STARLINK V2M, Unknown motor
Mass
730 kg wet, ~700 kg dry
Launch date (UTC)
2024-12-05 (7 months ago)
Launch vehicle
FALCON 9
Launch site
Air Force Western Test Range (AFWTR)
Object type
Payload
Rocket body
Debris
Shape & HBR
Box + 2 Pan, 29 m
Radar Cross Section
36.964 m², Large (>1 m²)

Expand to show TLE details & history

TLE from 5 hours ago
0 STARLINK-11468
1 62221U 24231D   25192.23107662  .00129530  00000-0  10550-2 0  9994
2 62221  53.1565 211.8671 0001083  72.8650 287.2486 15.69764740 35437
Epoch: 2025-07-11T05:32Z
TLE epoch observation values (Epoch: 2025-07-11T05:32:45.019Z)
Latitude
-0.00008°
Longitude
-160.70652°
Altitude
360.269 km
Speed
7.694 km/s
True Right ascension
14h 07m 28s
True Declination
0° 00' 00"
Sunlit
Object was in daylight at epoch
Visualization orbit readout
Latitude
14.59376°
Longitude
7.02487°
Altitude
359.573 km
Speed
7.696 km/s
Apparent Right ascension
04h 29m 46s
Apparent Declination
-33° 35' 59"
Sunlit
Object is in daylight
Visualization observer readout
Local Sidereal Time
23:06:51
Azimuth
121.844° SE
Elevation
-14.605°
Doppler factor
1
Orbital elements
Apogee altitude
360.561 km
Perigee altitude
359.102 km
Semi-major axis
6,737.968 km
Eccentricity
0.00011
Inclination
53.1565°
RAAN
211.8671°
Arg. of periapsis
72.865°
True anomaly
Unknown
Mean anomaly
287.2486°
Eccentric anomaly
Unknown
Mean motion
3.92419 °/min
Orbital period
91.74 mins
BSTAR
0.001055
Loading maneuver chart data...
Loading SW <> Apogee altitude chart data...
Loading historical data...
Loading historical data...
Loading historical data...
Loading historical data...
Loading historical data...
Loading historical data...
Loading historical data...

STARLINK-11468 Visibility

Observer location: undefined°, undefined°

STARLINK-11468 is likely not visible in the next few days
Span
Click to sort rows by Start time (UTC) header in descending order
Start Az.
Max El. time (UTC)
Max El. Az.
Max El.
End time (UTC)
End Az.
|